Etusivu
METAR-TAF:

METAR-TAF

Lentoasemat :

Storuman, Ruotsi

Leveyspiiri: 64-57-39N, Pituuspiiri: 017-41-47E, korkeus merenpinnasta: 279 m

Tämänhetkinen sää

Tämä raportti tehtiin 37 minuuttia sitten, kello 14.20 UTC
tyyntä
Lämpötila -20°C
Kosteus 84%
Ilmanpaine 983 hPa
Näkyvyys: 0250 m
lumisadetta

METAR: ESUD 131420Z AUTO 00000KT 0250 R33/1000N SN NCD M20/M22 Q0983 RESN

Aika: 15:57 (14:57 UTC)


TAF: puuttuu

Säähavainnot ja -ennusteet yli 4000 lentoasemalta (METAR- ja TAF-raportit).

Käytössä olevat sääasemat on merkitty karttaan keltaisilla ja punaisilla pisteillä.

Aseta hiiri pisteen päälle nähdäksesi sääaseman nimen.

Klikkaa sitten nähdäksesi säähavainnot ja -ennusteet.

Kartan vaihtaminen: klikkaa mustalla rastilla varustettuja vihreitä pisteitä, niin voit zoomata sisään; viivalla varustettua vihreää pistettä, niin voit zoomata ulos tai vihreitä nuolia, niin pääset viereisille kartoille.


METAR-TAF: